^^
Daily Summary for April 18, 2022 Units:  Metric    English   Both
Daily Weekly Monthly Yearly Custom
  High: Low: Average:
Temperature: 18.9 °C 3.3 °C 10.9 °C
Dew Point: 7.2 °C 0.6 °C 3.4 °C
Humidity: 86% 42% 63%
Wind Speed: 32.2km/h 0km/h 6.6km/h
Wind Gust: 32.2km/h - -
Wind- - West
Pressure: 1022.6 hPa 1019.2 hPa -
Precipitation: 0 mm    
Historical Graphs
 
 
Tabular Data for April 18, 2022
Time Temperature Dew Point Pressure Wind Wind Speed Wind Gust Humidity Rainfall Rate (Hourly) solar
00:04 7.2 °C 3.3 °C 1022.6 hPa Calm     76% 0 mm 0.00 W/m2
00:09 7.2 °C 3.3 °C 1022.6 hPa Calm     76% 0 mm 0.00 W/m2
00:14 7.2 °C 3.3 °C 1022.6 hPa Calm     76% 0 mm 0.00 W/m2
00:19 7.2 °C 3.3 °C 1022.6 hPa Calm     76% 0 mm 0.00 W/m2
00:24 7.2 °C 3.3 °C 1022.6 hPa Calm     77% 0 mm 0.00 W/m2
00:29 7.2 °C 3.3 °C 1022.6 hPa Calm     77% 0 mm 0.00 W/m2
00:34 7.2 °C 3.3 °C 1022.6 hPa Calm     77% 0 mm 0.00 W/m2
00:44 6.7 °C 3.3 °C 1022.6 hPa Calm     77% 0 mm 0.00 W/m2
00:49 6.7 °C 2.8 °C 1022.6 hPa Calm     77% 0 mm 0.00 W/m2
00:54 6.7 °C 2.8 °C 1022.6 hPa Calm     77% 0 mm 0.00 W/m2
00:59 6.7 °C 2.8 °C 1022.6 hPa Calm     77% 0 mm 0.00 W/m2
01:04 6.7 °C 2.8 °C 1022.6 hPa Calm     76% 0 mm 0.00 W/m2
01:09 6.7 °C 2.2 °C 1022.6 hPa Calm     75% 0 mm 0.00 W/m2
01:14 6.7 °C 2.2 °C 1022.6 hPa Calm     75% 0 mm 0.00 W/m2
01:19 6.7 °C 2.2 °C 1022.6 hPa Calm     75% 0 mm 0.00 W/m2
01:24 6.1 °C 2.2 °C 1022.6 hPa Calm     74% 0 mm 0.00 W/m2
01:29 6.1 °C 2.2 °C 1022.6 hPa Calm     74% 0 mm 0.00 W/m2
01:34 6.1 °C 2.2 °C 1022.6 hPa Calm     74% 0 mm 0.00 W/m2
01:39 6.1 °C 1.7 °C 1022.6 hPa Calm     74% 0 mm 0.00 W/m2
01:44 6.1 °C 1.7 °C 1022.6 hPa Calm     74% 0 mm 0.00 W/m2
01:49 6.1 °C 1.7 °C 1022.6 hPa Calm     74% 0 mm 0.00 W/m2
01:54 6.1 °C 1.7 °C 1022.6 hPa Calm     73% 0 mm 0.00 W/m2
01:59 6.1 °C 1.7 °C 1022.6 hPa Calm     73% 0 mm 0.00 W/m2
02:04 5.6 °C 1.1 °C 1022.6 hPa Calm     72% 0 mm 0.00 W/m2
02:09 5.6 °C 1.1 °C 1022.6 hPa Calm     72% 0 mm 0.00 W/m2
02:14 5.6 °C 1.1 °C 1022.6 hPa Calm     72% 0 mm 0.00 W/m2
02:19 5.6 °C 1.1 °C 1022.6 hPa Calm     73% 0 mm 0.00 W/m2
02:24 5.6 °C 1.1 °C 1022.6 hPa Calm     73% 0 mm 0.00 W/m2
02:29 5.6 °C 1.1 °C 1022.6 hPa Calm     74% 0 mm 0.00 W/m2
02:34 5.6 °C 1.1 °C 1022.6 hPa Calm     74% 0 mm 0.00 W/m2
02:39 5.6 °C 1.1 °C 1022.6 hPa Calm     74% 0 mm 0.00 W/m2
02:44 5.6 °C 1.1 °C 1022.6 hPa Calm     75% 0 mm 0.00 W/m2
02:49 5.6 °C 1.7 °C 1022.6 hPa Calm     76% 0 mm 0.00 W/m2
02:54 5 °C 1.1 °C 1022.6 hPa Calm     76% 0 mm 0.00 W/m2
02:59 5 °C 1.1 °C 1022.6 hPa Calm     76% 0 mm 0.00 W/m2
03:04 5 °C 1.1 °C 1022.6 hPa Calm     77% 0 mm 0.00 W/m2
03:09 5 °C 1.1 °C 1022.6 hPa Calm     77% 0 mm 0.00 W/m2
03:14 5 °C 1.1 °C 1022.6 hPa Calm     78% 0 mm 0.00 W/m2
03:19 5 °C 1.1 °C 1022.6 hPa Calm     78% 0 mm 0.00 W/m2
03:24 5 °C 1.1 °C 1022.6 hPa Calm     78% 0 mm 0.00 W/m2
03:29 5 °C 1.7 °C 1022.6 hPa NNE 3.2 km/h 1.6 km/h 79% 0 mm 0.00 W/m2
03:34 4.4 °C 1.7 °C 1022.6 hPa Calm   3.2 km/h 80% 0 mm 0.00 W/m2
03:39 4.4 °C 1.7 °C 1022.6 hPa NNE 3.2 km/h   81% 0 mm 0.00 W/m2
03:44 4.4 °C 1.7 °C 1022.6 hPa Calm   3.2 km/h 82% 0 mm 0.00 W/m2
03:49 4.4 °C 1.7 °C 1022.6 hPa Calm     82% 0 mm 0.00 W/m2
03:54 4.4 °C 1.7 °C 1022.6 hPa Calm     82% 0 mm 0.00 W/m2
03:59 4.4 °C 1.7 °C 1022.6 hPa Calm     82% 0 mm 0.00 W/m2
04:04 4.4 °C 1.7 °C 1022.6 hPa Calm     83% 0 mm 0.00 W/m2
04:09 4.4 °C 1.7 °C 1022.6 hPa Calm     83% 0 mm 0.00 W/m2
04:14 4.4 °C 1.7 °C 1019.2 hPa Calm     84% 0 mm 0.00 W/m2
04:19 4.4 °C 1.7 °C 1019.2 hPa Calm     84% 0 mm 0.00 W/m2
04:24 4.4 °C 2.2 °C 1019.2 hPa Calm     84% 0 mm 0.00 W/m2
04:28 4.4 °C 1.7 °C 1019.2 hPa Calm     84% 0 mm 0.00 W/m2
04:34 4.4 °C 1.7 °C 1019.2 hPa Calm     84% 0 mm 0.00 W/m2
04:39 4.4 °C 1.7 °C 1022.6 hPa Calm     84% 0 mm 0.00 W/m2
04:44 3.9 °C 1.7 °C 1022.6 hPa Calm     85% 0 mm 0.00 W/m2
04:49 3.9 °C 1.7 °C 1022.6 hPa Calm     85% 0 mm 0.00 W/m2
04:54 3.9 °C 1.7 °C 1019.2 hPa Calm     85% 0 mm 0.00 W/m2
04:59 3.9 °C 1.7 °C 1019.2 hPa Calm     85% 0 mm 0.00 W/m2
05:04 3.9 °C 1.7 °C 1022.6 hPa Calm     85% 0 mm 0.00 W/m2
05:09 3.9 °C 1.7 °C 1022.6 hPa Calm     86% 0 mm 0.00 W/m2
05:14 3.3 °C 1.7 °C 1022.6 hPa Calm     86% 0 mm 0.00 W/m2
05:19 3.3 °C 1.7 °C 1022.6 hPa Calm     86% 0 mm 0.00 W/m2
05:24 3.3 °C 1.1 °C 1022.6 hPa Calm     85% 0 mm 0.00 W/m2
05:29 3.3 °C 1.1 °C 1022.6 hPa Calm     85% 0 mm 0.00 W/m2
05:34 3.3 °C 1.1 °C 1022.6 hPa Calm     85% 0 mm 0.00 W/m2
05:39 3.3 °C 1.1 °C 1022.6 hPa Calm     85% 0 mm 0.00 W/m2
05:44 3.3 °C 1.1 °C 1019.2 hPa Calm     85% 0 mm 0.00 W/m2
05:49 3.3 °C 1.1 °C 1019.2 hPa Calm     86% 0 mm 0.00 W/m2
05:54 3.3 °C 1.1 °C 1019.2 hPa Calm     86% 0 mm 0.00 W/m2
05:59 3.3 °C 1.1 °C 1022.6 hPa Calm     86% 0 mm 0.00 W/m2
06:04 3.3 °C 1.1 °C 1022.6 hPa Calm     86% 0 mm 0.00 W/m2
06:08 3.3 °C 1.1 °C 1022.6 hPa Calm     86% 0 mm 0.00 W/m2
06:14 3.3 °C 1.1 °C 1022.6 hPa Calm     85% 0 mm 0.00 W/m2
06:19 3.3 °C 1.1 °C 1022.6 hPa Calm     85% 0 mm 0.00 W/m2
06:29 3.3 °C 1.1 °C 1022.6 hPa ESE 3.2 km/h   84% 0 mm 5.00 W/m2
06:34 3.3 °C 1.1 °C 1022.6 hPa Calm   3.2 km/h 84% 0 mm 7.00 W/m2
06:39 3.3 °C 1.1 °C 1022.6 hPa Calm     84% 0 mm 9.00 W/m2
06:44 3.3 °C 1.1 °C 1022.6 hPa Calm     84% 0 mm 11.00 W/m2
06:49 3.3 °C 1.1 °C 1022.6 hPa Calm     84% 0 mm 12.00 W/m2
06:54 3.3 °C 0.6 °C 1022.6 hPa Calm     84% 0 mm 14.00 W/m2
06:58 3.3 °C 0.6 °C 1022.6 hPa Calm     84% 0 mm 16.00 W/m2
07:04 3.3 °C 0.6 °C 1022.6 hPa Calm     84% 0 mm 18.00 W/m2
07:09 3.3 °C 1.1 °C 1022.6 hPa Calm     85% 0 mm 19.00 W/m2
07:14 3.3 °C 1.1 °C 1022.6 hPa Calm     85% 0 mm 21.00 W/m2
07:19 3.3 °C 1.1 °C 1022.6 hPa Calm     85% 0 mm 23.00 W/m2
07:24 3.3 °C 1.1 °C 1022.6 hPa Calm     85% 0 mm 25.00 W/m2
07:29 3.3 °C 1.1 °C 1022.6 hPa Calm     85% 0 mm 26.00 W/m2
07:34 3.3 °C 1.1 °C 1022.6 hPa Calm     85% 0 mm 28.00 W/m2
07:39 3.3 °C 1.1 °C 1022.6 hPa Calm     85% 0 mm 30.00 W/m2
07:44 3.9 °C 1.7 °C 1022.6 hPa Calm     85% 0 mm 32.00 W/m2
07:49 3.9 °C 1.7 °C 1022.6 hPa Calm     85% 0 mm 33.00 W/m2
07:54 3.9 °C 1.7 °C 1022.6 hPa SW 9.7 km/h 3.2 km/h 85% 0 mm 35.00 W/m2
07:59 3.9 °C 1.7 °C 1022.6 hPa SW 6.4 km/h 9.7 km/h 85% 0 mm 39.00 W/m2
08:04 3.9 °C 1.7 °C 1022.6 hPa NW 14.5 km/h 6.4 km/h 84% 0 mm 40.00 W/m2
08:09 4.4 °C 1.1 °C 1022.6 hPa SW 11.3 km/h 14.5 km/h 81% 0 mm 44.00 W/m2
08:14 5 °C 1.1 °C 1022.6 hPa SSW 11.3 km/h 11.3 km/h 80% 0 mm 47.00 W/m2
08:19 5 °C 1.1 °C 1022.6 hPa SSW 6.4 km/h 9.7 km/h 76% 0 mm 105.00 W/m2
08:24 5.6 °C 1.1 °C 1022.6 hPa SW 6.4 km/h 4.8 km/h 75% 0 mm 139.00 W/m2
08:29 6.1 °C 1.1 °C 1022.6 hPa SSW 9.7 km/h 4.8 km/h 74% 0 mm 396.00 W/m2
08:34 6.1 °C 1.7 °C 1022.6 hPa SSW 6.4 km/h 9.7 km/h 72% 0 mm 415.00 W/m2
08:39 6.7 °C 1.7 °C 1022.6 hPa SSW 6.4 km/h 4.8 km/h 70% 0 mm 438.00 W/m2
08:44 7.2 °C 1.7 °C 1022.6 hPa South 9.7 km/h 4.8 km/h 69% 0 mm 455.00 W/m2
08:49 7.8 °C 1.7 °C 1022.6 hPa South 14.5 km/h 9.7 km/h 68% 0 mm 476.00 W/m2
08:54 8.3 °C 1.7 °C 1022.6 hPa SW 9.7 km/h 14.5 km/h 64% 0 mm 489.00 W/m2
08:59 8.9 °C 2.2 °C 1022.6 hPa SW 6.4 km/h 4.8 km/h 63% 0 mm 503.00 W/m2
09:04 9.4 °C 1.7 °C 1022.6 hPa WSW 3.2 km/h 4.8 km/h 59% 0 mm 527.00 W/m2
09:09 9.4 °C 1.7 °C 1022.6 hPa NW 3.2 km/h 3.2 km/h 59% 0 mm 547.00 W/m2
09:14 10 °C 1.1 °C 1022.6 hPa WNW 3.2 km/h   55% 0 mm 564.00 W/m2
09:19 10.6 °C 1.1 °C 1022.6 hPa NNW 3.2 km/h 3.2 km/h 54% 0 mm 577.00 W/m2
09:24 10.6 °C 1.7 °C 1022.6 hPa NW 6.4 km/h 3.2 km/h 54% 0 mm 598.00 W/m2
09:29 11.1 °C 1.7 °C 1022.6 hPa West 11.3 km/h 9.7 km/h 54% 0 mm 615.00 W/m2
09:34 11.7 °C 1.7 °C 1022.6 hPa West 11.3 km/h 11.3 km/h 52% 0 mm 631.00 W/m2
09:39 11.7 °C 1.7 °C 1022.6 hPa WNW 9.7 km/h 11.3 km/h 51% 0 mm 650.00 W/m2
09:41 11.7 °C 1.1 °C 1022.6 hPa WNW 8 km/h 9.7 km/h 49% 0 mm 650.00 W/m2
09:49 12.2 °C 2.2 °C 1022.6 hPa NNW 14.5 km/h 14.5 km/h 51% 0 mm 647.00 W/m2
09:54 12.2 °C 2.2 °C 1022.6 hPa NW 11.3 km/h 14.5 km/h 51% 0 mm 689.00 W/m2
09:59 12.2 °C 2.2 °C 1022.6 hPa NW 14.5 km/h 11.3 km/h 50% 0 mm 673.00 W/m2
10:04 12.2 °C 1.7 °C 1022.6 hPa NW 14.5 km/h 14.5 km/h 49% 0 mm 705.00 W/m2
10:09 12.2 °C 1.7 °C 1022.6 hPa SSW 9.7 km/h 14.5 km/h 48% 0 mm 721.00 W/m2
10:14 12.8 °C 1.7 °C 1022.6 hPa SSW 3.2 km/h 9.7 km/h 48% 0 mm 735.00 W/m2
10:19 12.8 °C 2.2 °C 1022.6 hPa NNW 9.7 km/h 3.2 km/h 48% 0 mm 756.00 W/m2
10:24 12.8 °C 1.7 °C 1022.6 hPa NW 9.7 km/h 9.7 km/h 47% 0 mm 728.00 W/m2
10:29 13.3 °C 2.2 °C 1022.6 hPa WSW 6.4 km/h 9.7 km/h 47% 0 mm 740.00 W/m2
10:34 13.3 °C 2.2 °C 1022.6 hPa WSW 9.7 km/h 6.4 km/h 48% 0 mm 721.00 W/m2
10:39 13.3 °C 2.8 °C 1022.6 hPa SSW 9.7 km/h 9.7 km/h 48% 0 mm 735.00 W/m2
10:44 13.9 °C 2.8 °C 1022.6 hPa SW 3.2 km/h 9.7 km/h 48% 0 mm 701.00 W/m2
10:49 13.9 °C 2.8 °C 1022.6 hPa SW 6.4 km/h 1.6 km/h 47% 0 mm 705.00 W/m2
10:54 13.9 °C 2.2 °C 1022.6 hPa NNW 6.4 km/h 4.8 km/h 46% 0 mm 758.00 W/m2
10:59 13.9 °C 3.3 °C 1022.6 hPa West 8 km/h 6.4 km/h 48% 0 mm 805.00 W/m2
11:04 13.9 °C 2.8 °C 1022.6 hPa SSW 9.7 km/h 9.7 km/h 47% 0 mm 840.00 W/m2
11:09 14.4 °C 3.3 °C 1022.6 hPa West 9.7 km/h 9.7 km/h 48% 0 mm 856.00 W/m2
11:14 14.4 °C 3.3 °C 1022.6 hPa NNW 11.3 km/h 9.7 km/h 47% 0 mm 856.00 W/m2
11:19 14.4 °C 3.3 °C 1022.6 hPa West 9.7 km/h 11.3 km/h 47% 0 mm 747.00 W/m2
11:24 15 °C 2.8 °C 1022.6 hPa West 6.4 km/h 9.7 km/h 45% 0 mm 805.00 W/m2
11:29 15 °C 3.3 °C 1022.6 hPa WNW 9.7 km/h 4.8 km/h 45% 0 mm 907.00 W/m2
11:34 15 °C 2.8 °C 1022.6 hPa NW 11.3 km/h 9.7 km/h 44% 0 mm 884.00 W/m2
11:39 15 °C 3.9 °C 1022.6 hPa NW 11.3 km/h 11.3 km/h 46% 0 mm 884.00 W/m2
11:44 15.6 °C 3.3 °C 1022.6 hPa NW 11.3 km/h 11.3 km/h 45% 0 mm 909.00 W/m2
11:49 15.6 °C 3.3 °C 1022.6 hPa West 17.7 km/h 11.3 km/h 45% 0 mm 930.00 W/m2
11:54 15.6 °C 3.9 °C 1022.6 hPa NW 16.1 km/h 16.1 km/h 46% 0 mm 930.00 W/m2
11:59 15.6 °C 3.9 °C 1022.6 hPa North 14.5 km/h 14.5 km/h 45% 0 mm 912.00 W/m2
12:04 15.6 °C 3.9 °C 1022.6 hPa North 20.9 km/h 17.7 km/h 45% 0 mm 944.00 W/m2
12:09 15.6 °C 3.9 °C 1022.6 hPa West 11.3 km/h 20.9 km/h 45% 0 mm 935.00 W/m2
12:14 16.1 °C 4.4 °C 1022.6 hPa North 11.3 km/h 11.3 km/h 46% 0 mm 916.00 W/m2
12:19 16.1 °C 4.4 °C 1022.6 hPa North 11.3 km/h 11.3 km/h 46% 0 mm 882.00 W/m2
12:24 16.1 °C 4.4 °C 1022.6 hPa SW 14.5 km/h 12.9 km/h 45% 0 mm 872.00 W/m2
12:29 16.1 °C 3.9 °C 1022.6 hPa NNW 17.7 km/h 14.5 km/h 43% 0 mm 930.00 W/m2
12:34 16.1 °C 3.9 °C 1022.6 hPa NW 14.5 km/h 16.1 km/h 44% 0 mm 962.00 W/m2
12:39 16.7 °C 4.4 °C 1022.6 hPa NW 14.5 km/h 9.7 km/h 44% 0 mm 951.00 W/m2
12:44 16.7 °C 4.4 °C 1022.6 hPa NW 14.5 km/h 14.5 km/h 44% 0 mm 977.00 W/m2
12:49 16.7 °C 4.4 °C 1022.6 hPa NNW 20.9 km/h 14.5 km/h 44% 0 mm 949.00 W/m2
12:54 16.7 °C 4.4 °C 1022.6 hPa NNW 17.7 km/h 20.9 km/h 44% 0 mm 979.00 W/m2
12:59 16.7 °C 4.4 °C 1022.6 hPa NW 11.3 km/h 16.1 km/h 44% 0 mm 962.00 W/m2
13:04 17.2 °C 5 °C 1022.6 hPa WSW 17.7 km/h 11.3 km/h 45% 0 mm 939.00 W/m2
13:09 17.2 °C 5.6 °C 1022.6 hPa WNW 11.3 km/h 16.1 km/h 47% 0 mm 939.00 W/m2
13:14 17.2 °C 5.6 °C 1022.6 hPa SW 6.4 km/h 9.7 km/h 46% 0 mm 935.00 W/m2
13:19 17.8 °C 6.1 °C 1022.6 hPa NW 11.3 km/h 4.8 km/h 47% 0 mm 937.00 W/m2
13:24 18.3 °C 5.6 °C 1022.6 hPa WSW 14.5 km/h 6.4 km/h 44% 0 mm 921.00 W/m2
13:29 18.3 °C 5.6 °C 1022.6 hPa NW 25.7 km/h 16.1 km/h 43% 0 mm 954.00 W/m2
13:34 18.3 °C 5.6 °C 1022.6 hPa WNW 14.5 km/h 25.7 km/h 43% 0 mm 902.00 W/m2
13:39 18.3 °C 5.6 °C 1022.6 hPa NNW 17.7 km/h 19.3 km/h 43% 0 mm 759.00 W/m2
13:44 18.3 °C 5.6 °C 1022.6 hPa NW 16.1 km/h 16.1 km/h 43% 0 mm 791.00 W/m2
13:49 18.3 °C 5.6 °C 1022.6 hPa West 17.7 km/h 11.3 km/h 44% 0 mm 812.00 W/m2
13:53 18.3 °C 5 °C 1022.6 hPa NNW 25.7 km/h 25.7 km/h 42% 0 mm 914.00 W/m2
13:59 18.3 °C 5.6 °C 1022.6 hPa NW 20.9 km/h 25.7 km/h 43% 0 mm 923.00 W/m2
14:04 18.3 °C 5.6 °C 1022.6 hPa WNW 25.7 km/h 20.9 km/h 43% 0 mm 881.00 W/m2
14:09 18.3 °C 5.6 °C 1022.6 hPa WNW 20.9 km/h 25.7 km/h 44% 0 mm 865.00 W/m2
14:14 18.3 °C 5.6 °C 1022.6 hPa WNW 32.2 km/h 17.7 km/h 44% 0 mm 870.00 W/m2
14:19 18.3 °C 5.6 °C 1022.6 hPa WNW 17.7 km/h 32.2 km/h 43% 0 mm 867.00 W/m2
14:24 18.3 °C 5.6 °C 1022.6 hPa NW 29 km/h 16.1 km/h 43% 0 mm 863.00 W/m2
14:29 18.3 °C 5.6 °C 1022.6 hPa North 20.9 km/h 27.4 km/h 44% 0 mm 851.00 W/m2
14:34 18.3 °C 6.1 °C 1022.6 hPa NNW 20.9 km/h 20.9 km/h 44% 0 mm 844.00 W/m2
14:39 18.3 °C 5.6 °C 1022.6 hPa NNW 11.3 km/h 20.9 km/h 43% 0 mm 847.00 W/m2
14:44 18.9 °C 6.1 °C 1022.6 hPa West 17.7 km/h 14.5 km/h 43% 0 mm 846.00 W/m2
14:49 18.9 °C 6.1 °C 1022.6 hPa North 20.9 km/h 17.7 km/h 43% 0 mm 765.00 W/m2
14:54 18.9 °C 5.6 °C 1022.6 hPa NNE 17.7 km/h 20.9 km/h 43% 0 mm 489.00 W/m2
14:59 18.3 °C 5.6 °C 1022.6 hPa West 11.3 km/h 16.1 km/h 43% 0 mm 531.00 W/m2
15:04 18.3 °C 5.6 °C 1022.6 hPa NW 22.5 km/h 12.9 km/h 44% 0 mm 591.00 W/m2
15:09 18.3 °C 5.6 °C 1022.6 hPa NNW 20.9 km/h 22.5 km/h 43% 0 mm 591.00 W/m2
15:14 17.8 °C 5.6 °C 1022.6 hPa WNW 25.7 km/h 20.9 km/h 45% 0 mm 635.00 W/m2
15:19 17.8 °C 5.6 °C 1022.6 hPa West 19.3 km/h 25.7 km/h 45% 0 mm 564.00 W/m2
15:24 17.8 °C 5.6 °C 1022.6 hPa WNW 22.5 km/h 20.9 km/h 46% 0 mm 490.00 W/m2
15:29 17.8 °C 5.6 °C 1022.6 hPa WNW 11.3 km/h 22.5 km/h 45% 0 mm 448.00 W/m2
15:34 17.2 °C 5.6 °C 1019.2 hPa NNW 25.7 km/h 11.3 km/h 46% 0 mm 496.00 W/m2
15:39 17.2 °C 5.6 °C 1019.2 hPa NW 17.7 km/h 25.7 km/h 46% 0 mm 568.00 W/m2
15:44 17.2 °C 5.6 °C 1019.2 hPa WSW 14.5 km/h 16.1 km/h 47% 0 mm 464.00 W/m2
15:49 17.2 °C 5.6 °C 1019.2 hPa NW 14.5 km/h 14.5 km/h 47% 0 mm 429.00 W/m2
15:54 17.2 °C 5.6 °C 1019.2 hPa NNW 17.7 km/h 14.5 km/h 47% 0 mm 397.00 W/m2
15:59 17.2 °C 5.6 °C 1019.2 hPa NNW 16.1 km/h 4.8 km/h 47% 0 mm 411.00 W/m2
16:04 17.2 °C 5.6 °C 1022.6 hPa NW 20.9 km/h 17.7 km/h 47% 0 mm 364.00 W/m2
16:09 16.7 °C 5.6 °C 1019.2 hPa WNW 9.7 km/h 20.9 km/h 47% 0 mm 364.00 W/m2
16:14 16.7 °C 5 °C 1019.2 hPa NNW 17.7 km/h 9.7 km/h 46% 0 mm 332.00 W/m2
16:19 16.7 °C 5.6 °C 1019.2 hPa NNW 11.3 km/h 16.1 km/h 47% 0 mm 288.00 W/m2
16:24 16.7 °C 5 °C 1019.2 hPa North 17.7 km/h 11.3 km/h 46% 0 mm 272.00 W/m2
16:29 16.7 °C 5 °C 1019.2 hPa NW 29 km/h 20.9 km/h 47% 0 mm 257.00 W/m2
16:34 16.7 °C 5.6 °C 1019.2 hPa SW 11.3 km/h 27.4 km/h 49% 0 mm 230.00 W/m2
16:39 16.7 °C 6.1 °C 1019.2 hPa North 9.7 km/h 11.3 km/h 50% 0 mm 218.00 W/m2
16:44 16.1 °C 6.1 °C 1019.2 hPa NNW 11.3 km/h 9.7 km/h 50% 0 mm 207.00 W/m2
16:49 16.1 °C 6.1 °C 1019.2 hPa NW 9.7 km/h 11.3 km/h 51% 0 mm 206.00 W/m2
16:54 16.1 °C 6.1 °C 1019.2 hPa SSE 3.2 km/h 9.7 km/h 51% 0 mm 207.00 W/m2
16:59 16.1 °C 6.1 °C 1019.2 hPa ENE 9.7 km/h 4.8 km/h 52% 0 mm 193.00 W/m2
17:04 16.1 °C 6.1 °C 1019.2 hPa WNW 6.4 km/h 9.7 km/h 51% 0 mm 176.00 W/m2
17:09 16.1 °C 5.6 °C 1019.2 hPa WNW 14.5 km/h 4.8 km/h 50% 0 mm 169.00 W/m2
17:14 16.1 °C 6.1 °C 1019.2 hPa West 3.2 km/h 14.5 km/h 51% 0 mm 160.00 W/m2
17:19 16.1 °C 5.6 °C 1019.2 hPa NW 14.5 km/h 8 km/h 51% 0 mm 151.00 W/m2
17:23 16.1 °C 5.6 °C 1019.2 hPa WNW 6.4 km/h 14.5 km/h 51% 0 mm 142.00 W/m2
17:29 16.1 °C 5.6 °C 1019.2 hPa WNW 6.4 km/h 4.8 km/h 51% 0 mm 141.00 W/m2
17:34 15.6 °C 5.6 °C 1019.2 hPa NW 9.7 km/h 3.2 km/h 51% 0 mm 141.00 W/m2
17:39 15.6 °C 6.1 °C 1019.2 hPa NW 3.2 km/h 9.7 km/h 52% 0 mm 134.00 W/m2
17:44 15.6 °C 6.1 °C 1019.2 hPa NW 3.2 km/h 3.2 km/h 53% 0 mm 125.00 W/m2
17:49 15.6 °C 6.1 °C 1019.2 hPa NW 3.2 km/h 1.6 km/h 52% 0 mm 113.00 W/m2
17:54 15.6 °C 6.1 °C 1019.2 hPa Calm   3.2 km/h 53% 0 mm 107.00 W/m2
17:59 15.6 °C 6.1 °C 1019.2 hPa NW 3.2 km/h   53% 0 mm 97.00 W/m2
18:04 15.6 °C 6.1 °C 1019.2 hPa Calm   3.2 km/h 53% 0 mm 90.00 W/m2
18:09 15.6 °C 6.1 °C 1019.2 hPa NW 3.2 km/h   53% 0 mm 84.00 W/m2
18:14 15.6 °C 6.1 °C 1019.2 hPa Calm   3.2 km/h 53% 0 mm 83.00 W/m2
18:19 15.6 °C 6.1 °C 1019.2 hPa Calm     53% 0 mm 76.00 W/m2
18:24 15.6 °C 6.1 °C 1019.2 hPa Calm     54% 0 mm 67.00 W/m2
18:29 15.6 °C 6.1 °C 1019.2 hPa Calm     54% 0 mm 56.00 W/m2
18:34 15.6 °C 7.2 °C 1019.2 hPa Calm     57% 0 mm 56.00 W/m2
18:39 15.6 °C 6.7 °C 1019.2 hPa Calm     56% 0 mm 54.00 W/m2
18:44 15.6 °C 6.7 °C 1019.2 hPa West 3.2 km/h   55% 0 mm 54.00 W/m2
18:49 15.6 °C 6.1 °C 1019.2 hPa Calm   3.2 km/h 54% 0 mm 46.00 W/m2
18:54 15.6 °C 6.7 °C 1019.2 hPa Calm     56% 0 mm 39.00 W/m2
18:59 15.6 °C 6.7 °C 1019.2 hPa West 3.2 km/h 3.2 km/h 57% 0 mm 33.00 W/m2
19:04 15.6 °C 6.7 °C 1019.2 hPa WSW 3.2 km/h 3.2 km/h 57% 0 mm 32.00 W/m2
19:09 15 °C 7.2 °C 1019.2 hPa Calm     59% 0 mm 26.00 W/m2
19:14 15 °C 7.2 °C 1019.2 hPa Calm     58% 0 mm 25.00 W/m2
19:19 15 °C 6.7 °C 1019.2 hPa Calm     58% 0 mm 21.00 W/m2
19:24 15 °C 7.2 °C 1019.2 hPa Calm     60% 0 mm 16.00 W/m2
19:29 15 °C 7.2 °C 1019.2 hPa Calm     60% 0 mm 11.00 W/m2
19:34 15 °C 6.7 °C 1019.2 hPa Calm     59% 0 mm 7.00 W/m2
19:39 15 °C 6.7 °C 1019.2 hPa SW 3.2 km/h 3.2 km/h 58% 0 mm 5.00 W/m2
19:44 14.4 °C 6.1 °C 1019.2 hPa Calm   3.2 km/h 58% 0 mm 0.00 W/m2
19:49 14.4 °C 6.7 °C 1019.2 hPa Calm     59% 0 mm 0.00 W/m2
19:54 14.4 °C 6.7 °C 1019.2 hPa WSW 3.2 km/h   59% 0 mm 0.00 W/m2
El Dorado Weather
Compliments of Weather Underground - 2 mb